Time,TemperatureF,DewpointF,PressureIn,WindDirection,WindDirectionDegrees,WindSpeedMPH,WindSpeedGustMPH,Humidity,HourlyPrecipIn,Conditions,Clouds,dailyrainin,SoftwareType,DateUTC
2013-08-27 00:05:00,64.0,59.4,30.23,SSE,166,0.0,5.0,85,0.00,,,0.00,Wunderground v.1.15,2013-08-27 04:05:00,
2013-08-27 00:10:00,63.9,59.6,30.23,SSE,166,0.0,5.0,86,0.00,,,0.00,Wunderground v.1.15,2013-08-27 04:10:00,
2013-08-27 00:15:00,63.8,59.5,30.23,SSE,166,0.0,5.0,86,0.00,,,0.00,Wunderground v.1.15,2013-08-27 04:15:00,
2013-08-27 00:20:00,63.7,59.4,30.23,SSE,166,0.0,5.0,86,0.00,,,0.00,Wunderground v.1.15,2013-08-27 04:20:00,
2013-08-27 00:25:00,63.5,59.6,30.24,SSE,166,0.0,5.0,87,0.00,,,0.00,Wunderground v.1.15,2013-08-27 04:25:00,
2013-08-27 00:30:00,63.5,59.6,30.24,SSE,166,0.0,5.0,87,0.00,,,0.00,Wunderground v.1.15,2013-08-27 04:30:00,
2013-08-27 00:35:00,63.4,59.5,30.24,SSE,166,0.0,5.0,87,0.00,,,0.00,Wunderground v.1.15,2013-08-27 04:35:00,
2013-08-27 00:40:00,63.4,59.5,30.24,SSE,166,0.0,5.0,87,0.00,,,0.00,Wunderground v.1.15,2013-08-27 04:40:00,
2013-08-27 00:45:00,63.3,59.4,30.24,SSE,166,0.0,5.0,87,0.00,,,0.00,Wunderground v.1.15,2013-08-27 04:45:00,
2013-08-27 00:55:00,63.3,59.4,30.24,SSE,166,0.0,5.0,87,0.00,,,0.00,Wunderground v.1.15,2013-08-27 04:55:00,
2013-08-27 01:05:00,63.2,59.3,30.24,SSE,166,0.0,5.0,87,0.00,,,0.00,Wunderground v.1.15,2013-08-27 05:05:00,
2013-08-27 01:15:00,63.3,59.7,30.24,SSE,166,0.0,5.0,88,0.00,,,0.00,Wunderground v.1.15,2013-08-27 05:15:00,
2013-08-27 01:20:00,63.4,59.5,30.24,SSE,166,0.0,5.0,87,0.00,,,0.00,Wunderground v.1.15,2013-08-27 05:20:00,
2013-08-27 01:25:00,63.4,59.5,30.23,SSE,166,0.0,5.0,87,0.00,,,0.00,Wunderground v.1.15,2013-08-27 05:25:00,
2013-08-27 01:30:00,63.2,59.6,30.24,SSE,166,0.0,5.0,88,0.00,,,0.00,Wunderground v.1.15,2013-08-27 05:30:00,
2013-08-27 01:40:00,63.0,59.4,30.23,SSE,166,0.0,5.0,88,0.00,,,0.00,Wunderground v.1.15,2013-08-27 05:40:00,
2013-08-27 01:45:00,62.9,59.3,30.23,SSE,166,0.0,5.0,88,0.00,,,0.00,Wunderground v.1.15,2013-08-27 05:45:00,
2013-08-27 01:50:00,62.8,59.2,30.23,SSE,166,0.0,5.0,88,0.00,,,0.00,Wunderground v.1.15,2013-08-27 05:50:00,
2013-08-27 01:55:00,62.7,59.1,30.22,SSE,166,0.0,5.0,88,0.00,,,0.00,Wunderground v.1.15,2013-08-27 05:55:00,
2013-08-27 02:05:00,62.5,59.2,30.22,SSE,166,0.0,5.0,89,0.00,,,0.00,Wunderground v.1.15,2013-08-27 06:05:00,
2013-08-27 02:15:00,62.3,59.0,30.22,SSE,166,0.0,5.0,89,0.00,,,0.00,Wunderground v.1.15,2013-08-27 06:15:00,
2013-08-27 02:20:00,62.2,59.2,30.22,SSE,166,0.0,5.0,90,0.00,,,0.00,Wunderground v.1.15,2013-08-27 06:20:00,
2013-08-27 02:25:00,62.2,59.2,30.22,SSE,166,0.0,5.0,90,0.00,,,0.00,Wunderground v.1.15,2013-08-27 06:25:00,
2013-08-27 02:30:00,62.1,59.1,30.22,SSE,166,0.0,5.0,90,0.00,,,0.00,Wunderground v.1.15,2013-08-27 06:30:00,
2013-08-27 02:35:00,62.1,59.1,30.22,SSE,166,0.0,5.0,90,0.00,,,0.00,Wunderground v.1.15,2013-08-27 06:35:00,
2013-08-27 02:40:00,62.2,59.2,30.22,SSE,166,0.0,5.0,90,0.00,,,0.00,Wunderground v.1.15,2013-08-27 06:40:00,
2013-08-27 02:45:00,62.2,59.2,30.21,SSE,166,0.0,5.0,90,0.00,,,0.00,Wunderground v.1.15,2013-08-27 06:45:00,
2013-08-27 02:55:00,62.1,59.1,30.21,SSE,166,0.0,5.0,90,0.00,,,0.00,Wunderground v.1.15,2013-08-27 06:55:00,
2013-08-27 03:05:00,62.2,58.9,30.21,SSE,166,0.0,5.0,89,0.00,,,0.00,Wunderground v.1.15,2013-08-27 07:05:00,
2013-08-27 03:10:00,62.1,59.1,30.21,SSE,166,0.0,5.0,90,0.00,,,0.00,Wunderground v.1.15,2013-08-27 07:10:00,
2013-08-27 03:15:00,62.1,59.1,30.21,SSE,166,0.0,5.0,90,0.00,,,0.00,Wunderground v.1.15,2013-08-27 07:15:00,
2013-08-27 03:20:00,62.0,59.0,30.21,SSE,166,0.0,5.0,90,0.00,,,0.00,Wunderground v.1.15,2013-08-27 07:20:00,
2013-08-27 03:25:00,61.8,58.8,30.21,SSE,166,0.0,5.0,90,0.00,,,0.00,Wunderground v.1.15,2013-08-27 07:25:00,
2013-08-27 03:30:00,61.8,58.8,30.20,SSE,166,0.0,5.0,90,0.00,,,0.00,Wunderground v.1.15,2013-08-27 07:30:00,
2013-08-27 03:35:00,61.9,58.9,30.20,SSE,166,0.0,5.0,90,0.00,,,0.00,Wunderground v.1.15,2013-08-27 07:35:00,
2013-08-27 03:40:00,62.0,59.0,30.20,SSE,166,0.0,5.0,90,0.00,,,0.00,Wunderground v.1.15,2013-08-27 07:40:00,
2013-08-27 03:45:00,61.9,58.9,30.20,SSE,166,0.0,5.0,90,0.00,,,0.00,Wunderground v.1.15,2013-08-27 07:45:00,
2013-08-27 03:50:00,61.9,58.9,30.20,SSE,166,0.0,5.0,90,0.00,,,0.00,Wunderground v.1.15,2013-08-27 07:50:00,
2013-08-27 03:55:00,61.8,59.1,30.20,SSE,166,0.0,5.0,91,0.00,,,0.00,Wunderground v.1.15,2013-08-27 07:55:00,
2013-08-27 04:05:00,61.5,58.8,30.20,SSE,166,0.0,5.0,91,0.00,,,0.00,Wunderground v.1.15,2013-08-27 08:05:00,
2013-08-27 04:10:00,61.4,59.1,30.21,SSE,166,0.0,5.0,92,0.00,,,0.00,Wunderground v.1.15,2013-08-27 08:10:00,
2013-08-27 04:15:00,61.3,59.0,30.20,SSE,166,0.0,5.0,92,0.00,,,0.00,Wunderground v.1.15,2013-08-27 08:15:00,
2013-08-27 04:20:00,61.1,58.8,30.20,SSE,166,0.0,5.0,92,0.00,,,0.00,Wunderground v.1.15,2013-08-27 08:20:00,
2013-08-27 04:25:00,60.9,58.6,30.20,SSE,166,0.0,5.0,92,0.00,,,0.00,Wunderground v.1.15,2013-08-27 08:25:00,
2013-08-27 04:30:00,60.6,58.6,30.20,SSE,166,0.0,5.0,93,0.00,,,0.00,Wunderground v.1.15,2013-08-27 08:30:00,
2013-08-27 04:35:00,60.7,59.0,30.20,SSE,166,0.0,5.0,94,0.00,,,0.00,Wunderground v.1.15,2013-08-27 08:35:00,
2013-08-27 04:40:00,60.8,59.1,30.20,SSE,166,0.0,5.0,94,0.00,,,0.00,Wunderground v.1.15,2013-08-27 08:40:00,
2013-08-27 04:45:00,61.0,59.0,30.20,SSE,166,0.0,5.0,93,0.00,,,0.00,Wunderground v.1.15,2013-08-27 08:45:00,
2013-08-27 04:50:00,61.2,59.2,30.20,SSE,166,0.0,5.0,93,0.00,,,0.00,Wunderground v.1.15,2013-08-27 08:50:00,
2013-08-27 04:55:00,61.3,59.3,30.20,SSE,166,0.0,5.0,93,0.00,,,0.00,Wunderground v.1.15,2013-08-27 08:55:00,
2013-08-27 05:05:00,61.4,59.4,30.20,SSE,166,0.0,5.0,93,0.00,,,0.00,Wunderground v.1.15,2013-08-27 09:05:00,
2013-08-27 05:10:00,61.4,59.4,30.20,SSE,166,0.0,5.0,93,0.00,,,0.00,Wunderground v.1.15,2013-08-27 09:10:00,
2013-08-27 05:15:00,61.5,59.5,30.20,SSE,166,0.0,5.0,93,0.00,,,0.00,Wunderground v.1.15,2013-08-27 09:15:00,
2013-08-27 05:20:00,61.5,59.5,30.20,SSE,166,0.0,5.0,93,0.00,,,0.00,Wunderground v.1.15,2013-08-27 09:20:00,
2013-08-27 05:25:00,61.4,59.4,30.19,SSE,166,0.0,5.0,93,0.00,,,0.00,Wunderground v.1.15,2013-08-27 09:25:00,
2013-08-27 05:30:00,61.4,59.4,30.19,SSE,166,0.0,5.0,93,0.00,,,0.00,Wunderground v.1.15,2013-08-27 09:30:00,
2013-08-27 05:35:00,61.3,59.3,30.19,SSE,166,0.0,5.0,93,0.00,,,0.00,Wunderground v.1.15,2013-08-27 09:35:00,
2013-08-27 05:40:00,61.3,59.3,30.19,SSE,166,0.0,5.0,93,0.00,,,0.00,Wunderground v.1.15,2013-08-27 09:40:00,
2013-08-27 05:45:00,61.2,59.2,30.19,SSE,166,0.0,5.0,93,0.00,,,0.00,Wunderground v.1.15,2013-08-27 09:45:00,
2013-08-27 05:55:00,61.5,59.5,30.19,SSE,166,0.0,5.0,93,0.00,,,0.00,Wunderground v.1.15,2013-08-27 09:55:00,
2013-08-27 06:05:00,61.6,59.3,30.19,SSE,166,0.0,5.0,92,0.00,,,0.00,Wunderground v.1.15,2013-08-27 10:05:00,
2013-08-27 06:10:00,61.5,59.5,30.19,SSE,166,0.0,5.0,93,0.00,,,0.00,Wunderground v.1.15,2013-08-27 10:10:00,
2013-08-27 06:15:00,61.5,59.5,30.19,SSE,166,0.0,5.0,93,0.00,,,0.00,Wunderground v.1.15,2013-08-27 10:15:00,
2013-08-27 06:20:00,61.5,59.5,30.19,SSE,166,0.0,5.0,93,0.00,,,0.00,Wunderground v.1.15,2013-08-27 10:20:00,
2013-08-27 06:25:00,61.5,59.5,30.19,SSE,166,0.0,5.0,93,0.00,,,0.00,Wunderground v.1.15,2013-08-27 10:25:00,
2013-08-27 06:30:00,61.5,59.5,30.19,SSE,166,0.0,5.0,93,0.00,,,0.00,Wunderground v.1.15,2013-08-27 10:30:00,
2013-08-27 06:35:00,61.4,59.4,30.19,SSE,166,0.0,5.0,93,0.00,,,0.00,Wunderground v.1.15,2013-08-27 10:35:00,
2013-08-27 06:40:00,61.4,59.4,30.19,SSE,166,0.0,5.0,93,0.00,,,0.00,Wunderground v.1.15,2013-08-27 10:40:00,
2013-08-27 06:45:00,61.3,59.3,30.20,SSE,166,0.0,5.0,93,0.00,,,0.00,Wunderground v.1.15,2013-08-27 10:45:00,
2013-08-27 06:50:00,61.4,59.7,30.20,SSE,166,0.0,5.0,94,0.00,,,0.00,Wunderground v.1.15,2013-08-27 10:50:00,
2013-08-27 06:55:00,61.4,59.7,30.20,SSE,166,0.0,5.0,94,0.00,,,0.00,Wunderground v.1.15,2013-08-27 10:55:00,
2013-08-27 07:05:00,61.7,59.7,30.20,SSE,166,0.0,5.0,93,0.00,,,0.00,Wunderground v.1.15,2013-08-27 11:05:00,
2013-08-27 07:10:00,61.6,59.6,30.20,SSE,166,0.0,5.0,93,0.00,,,0.00,Wunderground v.1.15,2013-08-27 11:10:00,
2013-08-27 07:15:00,61.4,59.4,30.19,SSE,166,0.0,5.0,93,0.00,,,0.00,Wunderground v.1.15,2013-08-27 11:15:00,
2013-08-27 07:20:00,61.5,59.8,30.19,SSE,166,0.0,5.0,94,0.00,,,0.00,Wunderground v.1.15,2013-08-27 11:20:00,
2013-08-27 07:25:00,61.5,59.8,30.19,SSE,166,0.0,5.0,94,0.00,,,0.00,Wunderground v.1.15,2013-08-27 11:25:00,
2013-08-27 07:30:00,61.5,59.5,30.19,SSE,166,0.0,5.0,93,0.00,,,0.00,Wunderground v.1.15,2013-08-27 11:30:00,
2013-08-27 07:35:00,61.5,59.8,30.19,SSE,166,0.0,5.0,94,0.00,,,0.00,Wunderground v.1.15,2013-08-27 11:35:00,
2013-08-27 07:40:00,61.6,59.6,30.19,SSE,166,0.0,5.0,93,0.00,,,0.00,Wunderground v.1.15,2013-08-27 11:40:00,
2013-08-27 07:45:00,61.7,60.0,30.20,SSE,166,0.0,5.0,94,0.00,,,0.00,Wunderground v.1.15,2013-08-27 11:45:00,
2013-08-27 07:50:00,61.8,59.8,30.20,SSE,166,0.0,5.0,93,0.00,,,0.00,Wunderground v.1.15,2013-08-27 11:50:00,
2013-08-27 07:55:00,61.9,60.2,30.20,SSE,166,0.0,5.0,94,0.00,,,0.00,Wunderground v.1.15,2013-08-27 11:55:00,
2013-08-27 08:05:00,62.2,60.2,30.20,SSE,166,0.0,5.0,93,0.00,,,0.00,Wunderground v.1.15,2013-08-27 12:05:00,
2013-08-27 08:10:00,62.4,60.3,30.20,SSE,166,0.0,5.0,93,0.00,,,0.00,Wunderground v.1.15,2013-08-27 12:10:00,
2013-08-27 08:15:00,62.6,60.2,30.20,SSE,166,0.0,5.0,92,0.00,,,0.00,Wunderground v.1.15,2013-08-27 12:15:00,
2013-08-27 08:20:00,62.8,60.4,30.20,SSE,166,0.0,5.0,92,0.00,,,0.00,Wunderground v.1.15,2013-08-27 12:20:00,
2013-08-27 08:25:00,63.0,60.6,30.20,SSE,166,1.0,5.0,92,0.00,,,0.00,Wunderground v.1.15,2013-08-27 12:25:00,
2013-08-27 08:30:00,63.2,60.5,30.20,SSE,166,1.0,5.0,91,0.00,,,0.00,Wunderground v.1.15,2013-08-27 12:30:00,
2013-08-27 08:35:00,63.5,60.8,30.20,SSE,166,1.0,5.0,91,0.00,,,0.00,Wunderground v.1.15,2013-08-27 12:35:00,
2013-08-27 08:40:00,63.7,61.0,30.20,SSE,166,1.0,5.0,91,0.00,,,0.00,Wunderground v.1.15,2013-08-27 12:40:00,
2013-08-27 08:45:00,63.9,61.2,30.20,SSE,166,0.0,5.0,91,0.00,,,0.00,Wunderground v.1.15,2013-08-27 12:45:00,
2013-08-27 08:50:00,64.1,61.4,30.19,SSE,166,1.0,5.0,91,0.00,,,0.00,Wunderground v.1.15,2013-08-27 12:50:00,
2013-08-27 08:55:00,64.3,61.6,30.20,South,187,1.0,5.0,91,0.00,,,0.00,Wunderground v.1.15,2013-08-27 12:55:00,
2013-08-27 09:05:00,64.8,62.1,30.19,SE,146,1.0,1.0,91,0.00,,,0.00,Wunderground v.1.15,2013-08-27 13:05:00,
2013-08-27 09:10:00,65.1,62.4,30.19,WSW,239,1.0,5.0,91,0.00,,,0.00,Wunderground v.1.15,2013-08-27 13:10:00,
2013-08-27 09:15:00,65.5,62.8,30.19,ESE,117,0.0,5.0,91,0.00,,,0.00,Wunderground v.1.15,2013-08-27 13:15:00,
2013-08-27 09:20:00,65.8,63.1,30.19,South,171,1.0,5.0,91,0.00,,,0.00,Wunderground v.1.15,2013-08-27 13:20:00,
2013-08-27 09:25:00,66.1,63.1,30.19,South,171,1.0,5.0,90,0.00,,,0.00,Wunderground v.1.15,2013-08-27 13:25:00,
2013-08-27 09:30:00,66.4,63.4,30.19,SE,139,1.0,5.0,90,0.00,,,0.00,Wunderground v.1.15,2013-08-27 13:30:00,
2013-08-27 09:40:00,67.0,63.6,30.19,SE,139,1.0,5.0,89,0.00,,,0.00,Wunderground v.1.15,2013-08-27 13:40:00,
2013-08-27 09:45:00,67.4,64.0,30.19,SW,219,1.0,5.0,89,0.00,,,0.00,Wunderground v.1.15,2013-08-27 13:45:00,
2013-08-27 09:50:00,67.7,64.0,30.19,SW,219,1.0,5.0,88,0.00,,,0.00,Wunderground v.1.15,2013-08-27 13:50:00,
2013-08-27 09:55:00,68.1,64.4,30.19,SW,216,1.0,5.0,88,0.00,,,0.00,Wunderground v.1.15,2013-08-27 13:55:00,
2013-08-27 10:05:00,68.5,64.5,30.19,South,188,1.0,5.0,87,0.00,,,0.00,Wunderground v.1.15,2013-08-27 14:05:00,
2013-08-27 10:10:00,68.7,64.7,30.19,South,173,1.0,5.0,87,0.00,,,0.00,Wunderground v.1.15,2013-08-27 14:10:00,
2013-08-27 10:15:00,68.9,64.9,30.19,South,174,1.0,1.0,87,0.00,,,0.00,Wunderground v.1.15,2013-08-27 14:15:00,
2013-08-27 10:20:00,69.2,64.8,30.19,South,174,1.0,5.0,86,0.00,,,0.00,Wunderground v.1.15,2013-08-27 14:20:00,
2013-08-27 10:25:00,69.4,65.0,30.19,SSE,167,1.0,5.0,86,0.00,,,0.00,Wunderground v.1.15,2013-08-27 14:25:00,
2013-08-27 10:30:00,69.5,65.1,30.19,SSE,167,1.0,5.0,86,0.00,,,0.00,Wunderground v.1.15,2013-08-27 14:30:00,
2013-08-27 10:35:00,69.7,65.0,30.19,SE,144,2.0,2.0,85,0.00,,,0.00,Wunderground v.1.15,2013-08-27 14:35:00,
2013-08-27 10:40:00,70.0,65.3,30.19,SE,144,1.0,5.0,85,0.00,,,0.00,Wunderground v.1.15,2013-08-27 14:40:00,
2013-08-27 10:45:00,70.2,65.5,30.19,SSE,160,1.0,5.0,85,0.00,,,0.00,Wunderground v.1.15,2013-08-27 14:45:00,
2013-08-27 10:50:00,70.4,65.7,30.19,South,178,2.0,5.0,85,0.00,,,0.00,Wunderground v.1.15,2013-08-27 14:50:00,
2013-08-27 10:55:00,70.7,65.6,30.19,SE,143,2.0,5.0,84,0.00,,,0.00,Wunderground v.1.15,2013-08-27 14:55:00,
2013-08-27 11:05:00,71.2,66.1,30.19,ESE,121,2.0,2.0,84,0.00,,,0.00,Wunderground v.1.15,2013-08-27 15:05:00,
2013-08-27 11:10:00,71.5,66.4,30.19,SSW,195,2.0,4.0,84,0.00,,,0.00,Wunderground v.1.15,2013-08-27 15:10:00,
2013-08-27 11:15:00,71.4,66.0,30.19,SSE,163,2.0,2.0,83,0.00,,,0.00,Wunderground v.1.15,2013-08-27 15:15:00,
2013-08-27 11:20:00,71.5,66.1,30.19,SE,126,3.0,3.0,83,0.00,,,0.00,Wunderground v.1.15,2013-08-27 15:20:00,
2013-08-27 11:25:00,71.7,66.3,30.18,East,101,2.0,2.0,83,0.00,,,0.00,Wunderground v.1.15,2013-08-27 15:25:00,
2013-08-27 11:30:00,71.9,66.5,30.18,South,183,2.0,4.0,83,0.00,,,0.00,Wunderground v.1.15,2013-08-27 15:30:00,
2013-08-27 11:35:00,72.4,66.6,30.18,SSE,158,2.0,5.0,82,0.00,,,0.00,Wunderground v.1.15,2013-08-27 15:35:00,
2013-08-27 11:40:00,72.7,66.5,30.18,SSW,201,2.0,5.0,81,0.00,,,0.00,Wunderground v.1.15,2013-08-27 15:40:00,
2013-08-27 11:45:00,73.0,66.8,30.18,SE,139,2.0,5.0,81,0.00,,,0.00,Wunderground v.1.15,2013-08-27 15:45:00,
2013-08-27 11:50:00,73.3,66.8,30.18,SE,140,2.0,5.0,80,0.00,,,0.00,Wunderground v.1.15,2013-08-27 15:50:00,
2013-08-27 11:55:00,73.7,67.1,30.18,SSE,164,2.0,5.0,80,0.00,,,0.00,Wunderground v.1.15,2013-08-27 15:55:00,
2013-08-27 12:05:00,74.2,67.3,30.18,SSW,194,2.0,2.0,79,0.00,,,0.00,Wunderground v.1.15,2013-08-27 16:05:00,
2013-08-27 12:10:00,74.7,67.8,30.17,South,174,2.0,3.0,79,0.00,,,0.00,Wunderground v.1.15,2013-08-27 16:10:00,
2013-08-27 12:15:00,74.8,67.5,30.17,SSW,200,2.0,2.0,78,0.00,,,0.00,Wunderground v.1.15,2013-08-27 16:15:00,
2013-08-27 12:20:00,75.2,67.5,30.17,SE,126,2.0,5.0,77,0.00,,,0.00,Wunderground v.1.15,2013-08-27 16:20:00,
2013-08-27 12:25:00,75.1,67.4,30.17,ESE,118,1.0,5.0,77,0.00,,,0.00,Wunderground v.1.15,2013-08-27 16:25:00,
2013-08-27 12:30:00,75.3,67.6,30.17,SSW,210,2.0,5.0,77,0.00,,,0.00,Wunderground v.1.15,2013-08-27 16:30:00,
2013-08-27 12:35:00,75.8,68.1,30.17,South,191,2.0,5.0,77,0.00,,,0.00,Wunderground v.1.15,2013-08-27 16:35:00,
2013-08-27 12:40:00,76.0,67.5,30.17,SE,144,2.0,5.0,75,0.00,,,0.00,Wunderground v.1.15,2013-08-27 16:40:00,
2013-08-27 12:45:00,76.4,67.9,30.16,SSE,167,2.0,5.0,75,0.00,,,0.00,Wunderground v.1.15,2013-08-27 16:45:00,
2013-08-27 12:50:00,76.9,68.8,30.16,SSE,165,1.0,5.0,76,0.00,,,0.00,Wunderground v.1.15,2013-08-27 16:50:00,
2013-08-27 12:55:00,76.8,67.9,30.16,SSE,147,1.0,5.0,74,0.00,,,0.00,Wunderground v.1.15,2013-08-27 16:55:00,
2013-08-27 13:05:00,76.4,67.9,30.16,SSE,165,2.0,2.0,75,0.00,,,0.00,Wunderground v.1.15,2013-08-27 17:05:00,
2013-08-27 13:10:00,76.5,68.4,30.16,SE,145,1.0,3.0,76,0.00,,,0.00,Wunderground v.1.15,2013-08-27 17:10:00,
2013-08-27 13:15:00,76.7,67.8,30.16,SSW,193,2.0,5.0,74,0.00,,,0.00,Wunderground v.1.15,2013-08-27 17:15:00,
2013-08-27 13:20:00,76.7,67.4,30.16,SSE,159,2.0,5.0,73,0.00,,,0.00,Wunderground v.1.15,2013-08-27 17:20:00,
2013-08-27 13:25:00,77.0,67.3,30.16,South,173,1.0,5.0,72,0.00,,,0.00,Wunderground v.1.15,2013-08-27 17:25:00,
2013-08-27 13:30:00,77.1,67.8,30.15,SSE,161,1.0,5.0,73,0.00,,,0.00,Wunderground v.1.15,2013-08-27 17:30:00,
2013-08-27 13:35:00,77.4,68.1,30.15,SSE,161,1.0,1.0,73,0.00,,,0.00,Wunderground v.1.15,2013-08-27 17:35:00,
2013-08-27 13:40:00,77.6,68.3,30.15,WSW,246,1.0,3.0,73,0.00,,,0.00,Wunderground v.1.15,2013-08-27 17:40:00,
2013-08-27 13:45:00,77.7,68.0,30.15,SSW,196,2.0,2.0,72,0.00,,,0.00,Wunderground v.1.15,2013-08-27 17:45:00,
2013-08-27 13:50:00,78.1,68.7,30.15,SSE,155,2.0,5.0,73,0.00,,,0.00,Wunderground v.1.15,2013-08-27 17:50:00,
2013-08-27 13:55:00,78.7,67.7,30.15,South,180,1.0,5.0,69,0.00,,,0.00,Wunderground v.1.15,2013-08-27 17:55:00,
2013-08-27 14:05:00,78.1,67.5,30.14,South,182,1.0,5.0,70,0.00,,,0.00,Wunderground v.1.15,2013-08-27 18:05:00,
2013-08-27 14:15:00,78.0,67.8,30.14,SSE,163,2.0,5.0,71,0.00,,,0.00,Wunderground v.1.15,2013-08-27 18:15:00,
2013-08-27 14:20:00,77.9,68.5,30.14,SW,219,1.0,5.0,73,0.00,,,0.00,Wunderground v.1.15,2013-08-27 18:20:00,
2013-08-27 14:25:00,77.9,67.7,30.14,South,175,1.0,1.0,71,0.00,,,0.00,Wunderground v.1.15,2013-08-27 18:25:00,
2013-08-27 14:30:00,78.2,68.0,30.14,West,260,1.0,5.0,71,0.00,,,0.00,Wunderground v.1.15,2013-08-27 18:30:00,
2013-08-27 17:05:00,78.0,68.2,30.10,WNW,284,1.0,3.0,72,0.00,,,0.00,Wunderground v.1.15,2013-08-27 21:05:00,
2013-08-27 17:10:00,77.9,68.5,30.10,SSE,166,2.0,5.0,73,0.00,,,0.00,Wunderground v.1.15,2013-08-27 21:10:00,
2013-08-27 17:15:00,77.5,67.8,30.10,SSE,158,2.0,5.0,72,0.00,,,0.00,Wunderground v.1.15,2013-08-27 21:15:00,
2013-08-27 17:20:00,77.1,68.2,30.10,SSW,212,1.0,5.0,74,0.00,,,0.00,Wunderground v.1.15,2013-08-27 21:20:00,
2013-08-27 17:25:00,76.8,68.3,30.10,SE,132,1.0,5.0,75,0.00,,,0.00,Wunderground v.1.15,2013-08-27 21:25:00,
2013-08-27 17:30:00,76.3,67.8,30.10,South,182,1.0,1.0,75,0.00,,,0.00,Wunderground v.1.15,2013-08-27 21:30:00,
2013-08-27 17:35:00,75.9,67.4,30.10,SSW,200,1.0,5.0,75,0.00,,,0.00,Wunderground v.1.15,2013-08-27 21:35:00,
2013-08-27 17:40:00,75.5,67.0,30.10,SSW,200,1.0,5.0,75,0.00,,,0.00,Wunderground v.1.15,2013-08-27 21:40:00,
2013-08-27 17:45:00,75.0,66.9,30.10,SSW,200,1.0,5.0,76,0.00,,,0.00,Wunderground v.1.15,2013-08-27 21:45:00,
2013-08-27 17:50:00,74.6,66.9,30.10,SSW,202,1.0,5.0,77,0.00,,,0.00,Wunderground v.1.15,2013-08-27 21:50:00,
2013-08-27 17:55:00,74.3,66.6,30.10,SSE,149,1.0,5.0,77,0.00,,,0.00,Wunderground v.1.15,2013-08-27 21:55:00,
2013-08-27 18:05:00,74.7,66.6,30.10,SSE,151,1.0,5.0,76,0.00,,,0.00,Wunderground v.1.15,2013-08-27 22:05:00,
2013-08-27 18:10:00,75.0,67.3,30.10,SSE,153,1.0,5.0,77,0.00,,,0.00,Wunderground v.1.15,2013-08-27 22:10:00,
2013-08-27 18:15:00,75.1,67.0,30.10,SSW,194,1.0,1.0,76,0.00,,,0.00,Wunderground v.1.15,2013-08-27 22:15:00,
2013-08-27 18:30:00,73.9,66.6,30.10,South,175,0.0,5.0,78,0.00,,,0.00,Wunderground v.1.15,2013-08-27 22:30:00,
2013-08-27 18:35:00,73.6,66.3,30.10,SSW,194,1.0,5.0,78,0.00,,,0.00,Wunderground v.1.15,2013-08-27 22:35:00,
2013-08-27 18:40:00,73.6,66.7,30.10,SSE,157,1.0,5.0,79,0.00,,,0.00,Wunderground v.1.15,2013-08-27 22:40:00,
2013-08-27 18:45:00,73.7,66.8,30.10,SSE,155,1.0,5.0,79,0.00,,,0.00,Wunderground v.1.15,2013-08-27 22:45:00,
2013-08-27 18:50:00,73.8,66.9,30.10,SSE,155,2.0,5.0,79,0.00,,,0.00,Wunderground v.1.15,2013-08-27 22:50:00,
2013-08-27 18:55:00,73.9,67.0,30.10,SSE,155,1.0,5.0,79,0.00,,,0.00,Wunderground v.1.15,2013-08-27 22:55:00,
2013-08-27 19:05:00,73.8,67.2,30.10,SSE,155,1.0,5.0,80,0.00,,,0.00,Wunderground v.1.15,2013-08-27 23:05:00,
2013-08-27 19:10:00,73.5,66.6,30.10,SSE,155,1.0,5.0,79,0.00,,,0.00,Wunderground v.1.15,2013-08-27 23:10:00,
2013-08-27 19:15:00,73.2,66.3,30.10,SSE,155,0.0,5.0,79,0.00,,,0.00,Wunderground v.1.15,2013-08-27 23:15:00,
2013-08-27 19:20:00,72.9,66.0,30.10,SSE,155,0.0,5.0,79,0.00,,,0.00,Wunderground v.1.15,2013-08-27 23:20:00,
2013-08-27 19:25:00,72.8,66.3,30.10,SSE,161,1.0,5.0,80,0.00,,,0.00,Wunderground v.1.15,2013-08-27 23:25:00,
2013-08-27 19:30:00,72.7,66.2,30.10,SSE,161,1.0,5.0,80,0.00,,,0.00,Wunderground v.1.15,2013-08-27 23:30:00,
2013-08-27 19:35:00,72.7,66.2,30.10,SSE,161,1.0,5.0,80,0.00,,,0.00,Wunderground v.1.15,2013-08-27 23:35:00,
2013-08-27 19:40:00,72.5,66.0,30.10,SSE,161,1.0,5.0,80,0.00,,,0.00,Wunderground v.1.15,2013-08-27 23:40:00,
2013-08-27 19:50:00,72.2,66.0,30.09,SSE,161,1.0,5.0,81,0.00,,,0.00,Wunderground v.1.15,2013-08-27 23:50:00,
2013-08-27 19:55:00,72.1,66.3,30.10,SSE,161,0.0,5.0,82,0.00,,,0.00,Wunderground v.1.15,2013-08-27 23:55:00,
2013-08-27 20:05:00,71.6,66.2,30.10,SSE,161,0.0,5.0,83,0.00,,,0.00,Wunderground v.1.15,2013-08-28 00:05:00,
2013-08-27 20:10:00,71.4,66.0,30.10,SSE,161,0.0,5.0,83,0.00,,,0.00,Wunderground v.1.15,2013-08-28 00:10:00,
2013-08-27 20:15:00,71.2,66.1,30.10,SSE,161,0.0,5.0,84,0.00,,,0.00,Wunderground v.1.15,2013-08-28 00:15:00,
2013-08-27 20:20:00,71.1,66.4,30.10,SSE,161,0.0,5.0,85,0.00,,,0.00,Wunderground v.1.15,2013-08-28 00:20:00,
2013-08-27 20:25:00,70.8,65.7,30.11,SSE,161,0.0,5.0,84,0.00,,,0.00,Wunderground v.1.15,2013-08-28 00:25:00,
2013-08-27 20:30:00,70.8,66.1,30.11,SSE,161,0.0,5.0,85,0.00,,,0.00,Wunderground v.1.15,2013-08-28 00:30:00,
2013-08-27 20:35:00,70.4,66.0,30.11,SSE,161,0.0,5.0,86,0.00,,,0.00,Wunderground v.1.15,2013-08-28 00:35:00,
2013-08-27 20:40:00,70.1,66.0,30.10,SSE,161,0.0,5.0,87,0.00,,,0.00,Wunderground v.1.15,2013-08-28 00:40:00,
2013-08-27 20:45:00,69.8,65.8,30.10,SSE,161,0.0,5.0,87,0.00,,,0.00,Wunderground v.1.15,2013-08-28 00:45:00,
2013-08-27 20:50:00,69.6,65.9,30.10,SSE,161,0.0,5.0,88,0.00,,,0.00,Wunderground v.1.15,2013-08-28 00:50:00,
2013-08-27 21:05:00,69.3,65.9,30.11,SSE,161,0.0,5.0,89,0.00,,,0.00,Wunderground v.1.15,2013-08-28 01:05:00,
2013-08-27 21:10:00,69.2,65.8,30.11,SSE,161,0.0,5.0,89,0.00,,,0.00,Wunderground v.1.15,2013-08-28 01:10:00,
2013-08-27 21:15:00,69.1,66.0,30.11,SSE,161,0.0,5.0,90,0.00,,,0.00,Wunderground v.1.15,2013-08-28 01:15:00,
2013-08-27 21:20:00,69.0,65.9,30.11,SSE,161,0.0,5.0,90,0.00,,,0.00,Wunderground v.1.15,2013-08-28 01:20:00,
2013-08-27 21:30:00,68.8,66.1,30.11,SSE,161,0.0,5.0,91,0.00,,,0.00,Wunderground v.1.15,2013-08-28 01:30:00,
2013-08-27 21:35:00,68.6,65.9,30.12,SSE,161,0.0,5.0,91,0.00,,,0.00,Wunderground v.1.15,2013-08-28 01:35:00,
2013-08-27 21:40:00,68.5,65.8,30.12,SSE,161,0.0,5.0,91,0.00,,,0.00,Wunderground v.1.15,2013-08-28 01:40:00,
2013-08-27 21:45:00,68.4,65.7,30.12,SSE,161,0.0,5.0,91,0.00,,,0.00,Wunderground v.1.15,2013-08-28 01:45:00,
2013-08-27 21:50:00,68.2,65.8,30.12,SSE,161,0.0,5.0,92,0.00,,,0.00,Wunderground v.1.15,2013-08-28 01:50:00,
2013-08-27 21:55:00,68.1,65.7,30.12,SSE,161,0.0,5.0,92,0.00,,,0.00,Wunderground v.1.15,2013-08-28 01:55:00,
2013-08-27 22:05:00,67.9,65.8,30.12,SSE,161,0.0,5.0,93,0.00,,,0.00,Wunderground v.1.15,2013-08-28 02:05:00,
2013-08-27 22:10:00,68.1,66.0,30.12,SSE,157,0.0,5.0,93,0.00,,,0.00,Wunderground v.1.15,2013-08-28 02:10:00,
2013-08-27 22:15:00,68.4,66.3,30.12,SSE,157,0.0,5.0,93,0.00,,,0.00,Wunderground v.1.15,2013-08-28 02:15:00,
2013-08-27 22:20:00,68.4,66.0,30.12,SSE,157,0.0,5.0,92,0.00,,,0.00,Wunderground v.1.15,2013-08-28 02:20:00,
2013-08-27 22:25:00,68.4,66.0,30.12,SSE,157,0.0,5.0,92,0.00,,,0.00,Wunderground v.1.15,2013-08-28 02:25:00,
2013-08-27 22:30:00,68.4,66.0,30.12,SSE,157,0.0,5.0,92,0.00,,,0.00,Wunderground v.1.15,2013-08-28 02:30:00,
2013-08-27 22:35:00,68.4,66.3,30.12,SSE,157,0.0,5.0,93,0.00,,,0.00,Wunderground v.1.15,2013-08-28 02:35:00,
2013-08-27 22:40:00,68.3,65.9,30.12,SSE,157,0.0,5.0,92,0.00,,,0.00,Wunderground v.1.15,2013-08-28 02:40:00,
2013-08-27 22:45:00,68.2,66.1,30.12,SSE,157,0.0,5.0,93,0.00,,,0.00,Wunderground v.1.15,2013-08-28 02:45:00,
2013-08-27 22:55:00,67.9,65.8,30.12,SSE,157,0.0,5.0,93,0.00,,,0.00,Wunderground v.1.15,2013-08-28 02:55:00,
2013-08-27 23:05:00,67.7,65.9,30.12,SSE,157,0.0,5.0,94,0.00,,,0.00,Wunderground v.1.15,2013-08-28 03:05:00,
2013-08-27 23:10:00,67.6,65.8,30.12,SSE,157,0.0,5.0,94,0.00,,,0.00,Wunderground v.1.15,2013-08-28 03:10:00,
2013-08-27 23:15:00,67.6,65.5,30.12,SSE,157,0.0,5.0,93,0.00,,,0.00,Wunderground v.1.15,2013-08-28 03:15:00,
2013-08-27 23:20:00,67.7,65.3,30.12,SSE,157,0.0,5.0,92,0.00,,,0.00,Wunderground v.1.15,2013-08-28 03:20:00,
2013-08-27 23:25:00,67.7,65.6,30.12,SSE,157,0.0,5.0,93,0.00,,,0.00,Wunderground v.1.15,2013-08-28 03:25:00,
2013-08-27 23:30:00,67.6,65.2,30.13,SSE,157,0.0,5.0,92,0.00,,,0.00,Wunderground v.1.15,2013-08-28 03:30:00,
2013-08-27 23:40:00,67.8,65.4,30.13,SSE,157,0.0,5.0,92,0.00,,,0.00,Wunderground v.1.15,2013-08-28 03:40:00,
2013-08-27 23:45:00,67.7,65.0,30.13,SSE,157,0.0,5.0,91,0.00,,,0.00,Wunderground v.1.15,2013-08-28 03:45:00,
2013-08-27 23:50:00,67.7,65.0,30.12,SSE,157,0.0,5.0,91,0.00,,,0.00,Wunderground v.1.15,2013-08-28 03:50:00,
2013-08-27 23:55:00,67.8,64.8,30.12,SSE,157,0.0,5.0,90,0.00,,,0.00,Wunderground v.1.15,2013-08-28 03:55:00,